| time (UTC) | temp F | wind direction | speed MPH | gust MPH | rain 1hr in | rain 24hr in | rain mn in | humidity % | barometer mb |
| 20260507094958 | 35 | 276 | 0.0 | 0.0 | 0.00 | 0.00 | 0.00 | 77 | 1011.0 |
| 20260507094456 | 35 | 276 | 0.0 | 0.0 | 0.00 | 0.00 | 0.00 | 77 | 1011.0 |
| 20260507093958 | 35 | 276 | 0.0 | 0.0 | 0.00 | 0.00 | 0.00 | 77 | 1011.0 |
| 20260507093456 | 35 | 276 | 0.0 | 0.0 | 0.00 | 0.00 | 0.00 | 76 | 1011.0 |
| 20260507092956 | 36 | 276 | 0.0 | 0.0 | 0.00 | 0.00 | 0.00 | 76 | 1011.1 |
| 20260507092457 | 36 | 276 | 0.0 | 0.0 | 0.00 | 0.00 | 0.00 | 76 | 1011.1 |
| 20260507091957 | 36 | 276 | 0.0 | 0.0 | 0.00 | 0.00 | 0.00 | 75 | 1011.1 |
| 20260507091457 | 36 | 276 | 0.0 | 0.0 | 0.00 | 0.00 | 0.00 | 75 | 1011.1 |
| 20260507090957 | 36 | 276 | 0.0 | 0.0 | 0.00 | 0.00 | 0.00 | 74 | 1011.2 |
| 20260507090456 | 37 | 276 | 0.0 | 0.0 | 0.00 | 0.00 | 0.00 | 74 | 1011.3 |
| 20260507085956 | 37 | 276 | 0.0 | 1.0 | 0.00 | 0.00 | 0.00 | 74 | 1011.2 |
| 20260507085457 | 37 | 276 | 0.0 | 1.0 | 0.00 | 0.00 | 0.00 | 74 | 1011.2 |
| 20260507084956 | 37 | 276 | 0.0 | 1.0 | 0.00 | 0.00 | 0.00 | 74 | 1011.2 |
| 20260507084456 | 37 | 276 | 0.0 | 0.0 | 0.00 | 0.00 | 0.00 | 74 | 1011.3 |
| 20260507083956 | 38 | 276 | 0.0 | 0.0 | 0.00 | 0.00 | 0.00 | 75 | 1011.3 |
| 20260507083456 | 38 | 276 | 0.0 | 0.0 | 0.00 | 0.00 | 0.00 | 75 | 1011.3 |
| 20260507082957 | 38 | 276 | 0.0 | 0.0 | 0.00 | 0.00 | 0.00 | 74 | 1011.3 |
| 20260507082456 | 38 | 276 | 0.0 | 1.0 | 0.00 | 0.00 | 0.00 | 74 | 1011.3 |
| 20260507081957 | 38 | 276 | 0.0 | 1.0 | 0.00 | 0.00 | 0.00 | 73 | 1011.3 |
| 20260507073957 | 40 | 276 | 0.0 | 1.0 | 0.00 | 0.00 | 0.00 | 69 | 1011.5 |
| 20260507073456 | 40 | 276 | 0.0 | 1.0 | 0.00 | 0.00 | 0.00 | 68 | 1011.4 |
| 20260507072957 | 40 | 276 | 0.0 | 2.0 | 0.00 | 0.00 | 0.00 | 68 | 1011.4 |
| 20260507072456 | 41 | 313 | 1.0 | 2.0 | 0.00 | 0.00 | 0.00 | 68 | 1011.4 |
| 20260507071956 | 41 | 312 | 0.0 | 4.0 | 0.00 | 0.00 | 0.00 | 69 | 1011.3 |
| 20260507071456 | 41 | 312 | 0.0 | 4.0 | 0.00 | 0.00 | 0.00 | 69 | 1011.4 |
| 20260507070956 | 41 | 313 | 2.0 | 5.0 | 0.00 | 0.00 | 0.00 | 69 | 1011.5 |
| 20260507063456 | 41 | 280 | 1.0 | 4.0 | 0.00 | 0.00 | 0.00 | 71 | 1011.6 |
| 20260507062956 | 40 | 305 | 2.0 | 4.0 | 0.00 | 0.00 | 0.00 | 71 | 1011.5 |
| 20260507062456 | 40 | 308 | 1.0 | 4.0 | 0.00 | 0.00 | 0.00 | 72 | 1011.6 |
| 20260507061956 | 40 | 315 | 1.0 | 2.0 | 0.00 | 0.00 | 0.00 | 73 | 1011.6 |
| 20260507061457 | 40 | 299 | 0.0 | 2.0 | 0.00 | 0.00 | 0.00 | 73 | 1011.6 |
| 20260507060956 | 40 | 299 | 0.0 | 2.0 | 0.00 | 0.00 | 0.00 | 73 | 1011.6 |
| 20260507060457 | 40 | 299 | 0.0 | 2.0 | 0.00 | 0.00 | 0.00 | 73 | 1011.6 |
| 20260507055957 | 40 | 299 | 0.0 | 0.0 | 0.00 | 0.00 | 0.00 | 73 | 1011.7 |
| 20260507055456 | 40 | 299 | 0.0 | 0.0 | 0.00 | 0.00 | 0.00 | 72 | 1011.6 |
| 20260507054957 | 40 | 299 | 0.0 | 0.0 | 0.00 | 0.00 | 0.00 | 72 | 1011.6 |
| 20260507054457 | 40 | 299 | 0.0 | 0.0 | 0.00 | 0.00 | 0.00 | 72 | 1011.6 |
| 20260507053956 | 40 | 299 | 0.0 | 0.0 | 0.00 | 0.00 | 0.00 | 72 | 1011.7 |
| 20260507053457 | 40 | 299 | 0.0 | 0.0 | 0.00 | 0.00 | 0.00 | 72 | 1011.6 |
| 20260507052957 | 40 | 299 | 0.0 | 0.0 | 0.00 | 0.00 | 0.00 | 71 | 1011.6 |
| 20260507052456 | 40 | 299 | 0.0 | 0.0 | 0.00 | 0.00 | 0.00 | 70 | 1011.7 |
| 20260507051956 | 40 | 299 | 0.0 | 0.0 | 0.00 | 0.00 | 0.00 | 70 | 1011.8 |
| 20260507051456 | 40 | 299 | 0.0 | 0.0 | 0.00 | 0.00 | 0.00 | 69 | 1011.8 |
| 20260507050956 | 40 | 299 | 0.0 | 0.0 | 0.00 | 0.00 | 0.00 | 68 | 1011.8 |
| 20260507050456 | 40 | 299 | 0.0 | 0.0 | 0.00 | 0.00 | 0.00 | 67 | 1011.8 |
| 20260507045958 | 40 | 299 | 0.0 | 0.0 | 0.00 | 0.00 | 0.00 | 67 | 1011.8 |
| 20260507045457 | 41 | 299 | 0.0 | 0.0 | 0.00 | 0.00 | 0.00 | 66 | 1011.8 |
| 20260507044957 | 41 | 299 | 0.0 | 0.0 | 0.00 | 0.00 | 0.00 | 64 | 1011.7 |
| 20260507044457 | 41 | 299 | 0.0 | 0.0 | 0.00 | 0.00 | 0.00 | 63 | 1011.7 |
| 20260507043958 | 41 | 299 | 0.0 | 0.0 | 0.00 | 0.00 | 0.00 | 62 | 1011.7 |
| 20260507043458 | 41 | 299 | 0.0 | 0.0 | 0.00 | 0.00 | 0.00 | 60 | 1011.8 |
| 20260507042958 | 42 | 299 | 0.0 | 0.0 | 0.00 | 0.00 | 0.00 | 59 | 1011.8 |
| 20260507042457 | 42 | 299 | 0.0 | 0.0 | 0.00 | 0.00 | 0.00 | 58 | 1011.8 |
| 20260507031957 | 45 | 309 | 0.0 | 2.0 | 0.00 | 0.00 | 0.00 | 56 | 1012.0 |
| 20260507031457 | 46 | 309 | 0.0 | 2.0 | 0.00 | 0.00 | 0.00 | 56 | 1012.0 |
| 20260507030957 | 46 | 305 | 1.0 | 2.0 | 0.00 | 0.00 | 0.00 | 55 | 1012.0 |
| 20260507030457 | 46 | 297 | 0.0 | 2.0 | 0.00 | 0.00 | 0.00 | 55 | 1012.0 |
| 20260507025959 | 46 | 297 | 0.0 | 2.0 | 0.00 | 0.00 | 0.00 | 55 | 1012.0 |
| 20260507025457 | 46 | 295 | 0.0 | 2.0 | 0.00 | 0.00 | 0.00 | 55 | 1012.0 |
| 20260507024957 | 46 | 290 | 0.0 | 4.0 | 0.00 | 0.00 | 0.00 | 55 | 1012.0 |
| 20260507024457 | 46 | 290 | 1.0 | 4.0 | 0.00 | 0.00 | 0.00 | 54 | 1012.0 |
| 20260507023957 | 47 | 284 | 0.0 | 3.0 | 0.00 | 0.00 | 0.00 | 54 | 1012.0 |
| 20260507023457 | 47 | 309 | 1.0 | 3.0 | 0.00 | 0.00 | 0.00 | 54 | 1011.9 |
| 20260507022957 | 47 | 322 | 1.0 | 3.0 | 0.00 | 0.00 | 0.00 | 54 | 1012.0 |
| 20260507022457 | 47 | 295 | 1.0 | 2.0 | 0.00 | 0.00 | 0.00 | 54 | 1011.9 |
| 20260507021957 | 47 | 297 | 0.0 | 2.0 | 0.00 | 0.00 | 0.00 | 54 | 1011.9 |
| 20260507021457 | 47 | 290 | 0.0 | 2.0 | 0.00 | 0.00 | 0.00 | 54 | 1011.9 |
| 20260507020957 | 47 | 244 | 1.0 | 2.0 | 0.00 | 0.00 | 0.00 | 53 | 1011.8 |
| 20260507020457 | 48 | 266 | 1.0 | 3.0 | 0.00 | 0.00 | 0.00 | 53 | 1011.7 |
| 20260507015957 | 48 | 305 | 1.0 | 3.0 | 0.00 | 0.00 | 0.00 | 53 | 1011.8 |
| 20260507015457 | 48 | 308 | 0.0 | 2.0 | 0.00 | 0.00 | 0.00 | 52 | 1011.7 |
| 20260507014958 | 48 | 307 | 1.0 | 3.0 | 0.00 | 0.00 | 0.00 | 52 | 1011.7 |
| 20260507014457 | 48 | 318 | 1.0 | 3.0 | 0.00 | 0.00 | 0.00 | 52 | 1011.6 |
| 20260507013958 | 48 | 308 | 0.0 | 3.0 | 0.00 | 0.00 | 0.00 | 52 | 1011.7 |
| 20260507013456 | 48 | 257 | 1.0 | 4.0 | 0.00 | 0.00 | 0.00 | 52 | 1011.6 |
| 20260507012958 | 48 | 306 | 1.0 | 5.0 | 0.00 | 0.00 | 0.00 | 51 | 1011.6 |
| 20260507012457 | 48 | 326 | 1.0 | 5.0 | 0.00 | 0.00 | 0.00 | 51 | 1011.6 |
| 20260507011956 | 49 | 271 | 1.0 | 2.0 | 0.00 | 0.00 | 0.00 | 50 | 1011.5 |
| 20260507011457 | 49 | 261 | 0.0 | 3.0 | 0.00 | 0.00 | 0.00 | 50 | 1011.5 |
| 20260507010957 | 49 | 297 | 1.0 | 4.0 | 0.00 | 0.00 | 0.00 | 50 | 1011.5 |
| 20260507010458 | 49 | 307 | 2.0 | 4.0 | 0.00 | 0.00 | 0.00 | 50 | 1011.5 |
| 20260507005957 | 49 | 309 | 2.0 | 4.0 | 0.00 | 0.00 | 0.00 | 49 | 1011.5 |
| 20260507005457 | 49 | 315 | 1.0 | 4.0 | 0.00 | 0.00 | 0.00 | 49 | 1011.5 |
| 20260507004956 | 49 | 293 | 1.0 | 5.0 | 0.00 | 0.00 | 0.00 | 50 | 1011.5 |
| 20260507004457 | 49 | 310 | 1.0 | 5.0 | 0.00 | 0.00 | 0.00 | 50 | 1011.4 |
| 20260507003956 | 50 | 258 | 1.0 | 3.0 | 0.00 | 0.00 | 0.00 | 50 | 1011.5 |
| 20260507003456 | 50 | 299 | 1.0 | 6.0 | 0.00 | 0.00 | 0.00 | 49 | 1011.4 |
| 20260507002957 | 50 | 301 | 2.0 | 7.0 | 0.00 | 0.00 | 0.00 | 48 | 1011.3 |
| 20260507002457 | 50 | 261 | 3.0 | 10.0 | 0.00 | 0.00 | 0.00 | 48 | 1011.3 |
| 20260507001956 | 50 | 240 | 1.0 | 5.0 | 0.00 | 0.00 | 0.00 | 49 | 1011.1 |
| 20260507001457 | 50 | 282 | 1.0 | 4.0 | 0.00 | 0.00 | 0.00 | 49 | 1011.0 |
| 20260507000957 | 50 | 329 | 2.0 | 6.0 | 0.00 | 0.00 | 0.00 | 48 | 1011.0 |
| 20260507000458 | 50 | 219 | 2.0 | 6.0 | 0.00 | 0.00 | 0.00 | 48 | 1011.0 |
| 20260506235956 | 50 | 266 | 3.0 | 6.0 | 0.00 | 0.00 | 0.00 | 48 | 1011.0 |
| 20260506235457 | 50 | 320 | 2.0 | 6.0 | 0.00 | 0.00 | 0.00 | 48 | 1011.0 |
| 20260506234958 | 51 | 215 | 2.0 | 5.0 | 0.00 | 0.00 | 0.00 | 47 | 1010.9 |
| 20260506234456 | 51 | 325 | 2.0 | 5.0 | 0.00 | 0.00 | 0.00 | 47 | 1011.0 |
| 20260506233956 | 51 | 282 | 2.0 | 9.0 | 0.00 | 0.00 | 0.00 | 47 | 1011.0 |
| 20260506233457 | 51 | 288 | 3.0 | 7.0 | 0.00 | 0.00 | 0.00 | 47 | 1011.0 |
| 20260506232957 | 51 | 299 | 2.0 | 7.0 | 0.00 | 0.00 | 0.00 | 47 | 1011.0 |
| 20260506232457 | 51 | 295 | 2.0 | 5.0 | 0.00 | 0.00 | 0.00 | 47 | 1010.9 |
| 20260506231957 | 51 | 271 | 2.0 | 5.0 | 0.00 | 0.00 | 0.00 | 48 | 1010.9 |
| 20260506231457 | 51 | 297 | 1.0 | 7.0 | 0.00 | 0.00 | 0.00 | 48 | 1010.7 |
| 20260506230957 | 51 | 326 | 2.0 | 6.0 | 0.00 | 0.00 | 0.00 | 47 | 1010.8 |
| 20260506230457 | 51 | 320 | 1.0 | 8.0 | 0.00 | 0.00 | 0.00 | 46 | 1010.7 |
| 20260506225959 | 51 | 271 | 4.0 | 12.0 | 0.00 | 0.00 | 0.00 | 45 | 1010.7 |
| 20260506225458 | 52 | 225 | 5.0 | 12.0 | 0.00 | 0.00 | 0.00 | 44 | 1010.8 |
| 20260506224958 | 53 | 287 | 3.0 | 11.0 | 0.00 | 0.00 | 0.00 | 44 | 1010.7 |
| 20260506224457 | 53 | 340 | 3.0 | 11.0 | 0.00 | 0.00 | 0.00 | 42 | 1010.7 |
| 20260506223958 | 54 | 307 | 3.0 | 9.0 | 0.00 | 0.00 | 0.00 | 45 | 1010.9 |
| 20260506223458 | 52 | 295 | 4.0 | 9.0 | 0.00 | 0.00 | 0.00 | 45 | 1010.9 |
| 20260506222958 | 52 | 300 | 3.0 | 11.0 | 0.00 | 0.00 | 0.00 | 44 | 1010.8 |
| 20260506222459 | 52 | 212 | 4.0 | 11.0 | 0.00 | 0.00 | 0.00 | 43 | 1010.9 |
| 20260506221958 | 54 | 249 | 3.0 | 13.0 | 0.00 | 0.00 | 0.00 | 42 | 1010.8 |
| 20260506221458 | 56 | 313 | 5.0 | 13.0 | 0.00 | 0.00 | 0.00 | 42 | 1010.9 |
| 20260506220958 | 56 | 288 | 4.0 | 9.0 | 0.00 | 0.00 | 0.00 | 41 | 1010.8 |
| 20260506220458 | 53 | 226 | 3.0 | 9.0 | 0.00 | 0.00 | 0.00 | 44 | 1010.8 |
| 20260506215959 | 54 | 307 | 3.0 | 9.0 | 0.00 | 0.00 | 0.00 | 42 | 1010.7 |
| 20260506215457 | 54 | 326 | 3.0 | 11.0 | 0.00 | 0.00 | 0.00 | 44 | 1010.8 |
| 20260506214957 | 54 | 330 | 5.0 | 11.0 | 0.00 | 0.00 | 0.00 | 41 | 1010.8 |
| 20260506214457 | 53 | 266 | 2.0 | 11.0 | 0.00 | 0.00 | 0.00 | 44 | 1010.9 |
| 20260506213957 | 53 | 223 | 5.0 | 12.0 | 0.00 | 0.00 | 0.00 | 43 | 1010.7 |
| 20260506213457 | 54 | 271 | 5.0 | 12.0 | 0.00 | 0.00 | 0.00 | 42 | 1010.8 |
| 20260506212957 | 53 | 280 | 2.0 | 9.0 | 0.00 | 0.00 | 0.00 | 44 | 1010.7 |
| 20260506212457 | 53 | 341 | 3.0 | 14.0 | 0.00 | 0.00 | 0.00 | 43 | 1010.7 |
| 20260506211957 | 53 | 320 | 4.0 | 14.0 | 0.00 | 0.00 | 0.00 | 41 | 1010.7 |
| 20260506211457 | 54 | 283 | 3.0 | 11.0 | 0.00 | 0.00 | 0.00 | 41 | 1010.5 |
| 20260506210957 | 55 | 334 | 3.0 | 6.0 | 0.00 | 0.00 | 0.00 | 40 | 1010.6 |
| 20260506210457 | 54 | 302 | 4.0 | 8.0 | 0.00 | 0.00 | 0.00 | 42 | 1010.6 |
| 20260506205958 | 53 | 340 | 4.0 | 9.0 | 0.00 | 0.00 | 0.00 | 42 | 1010.9 |
| 20260506201958 | 54 | 271 | 4.0 | 11.0 | 0.00 | 0.00 | 0.00 | 44 | 1010.9 |
| 20260506201458 | 53 | 324 | 5.0 | 11.0 | 0.00 | 0.00 | 0.00 | 42 | 1010.9 |
| 20260506200958 | 54 | 349 | 2.0 | 10.0 | 0.00 | 0.00 | 0.00 | 43 | 1011.0 |
| 20260506200457 | 54 | 238 | 4.0 | 13.0 | 0.00 | 0.00 | 0.00 | 42 | 1010.9 |
| 20260506195957 | 54 | 245 | 5.0 | 14.0 | 0.00 | 0.00 | 0.00 | 42 | 1010.9 |
| 20260506195456 | 55 | 271 | 4.0 | 14.0 | 0.00 | 0.00 | 0.00 | 43 | 1011.0 |
| 20260506194957 | 53 | 334 | 4.0 | 11.0 | 0.00 | 0.00 | 0.00 | 43 | 1011.2 |
| 20260506194456 | 54 | 266 | 3.0 | 12.0 | 0.00 | 0.00 | 0.00 | 43 | 1011.1 |
| 20260506193957 | 53 | 305 | 2.0 | 12.0 | 0.00 | 0.00 | 0.00 | 44 | 1011.0 |
| 20260506193457 | 53 | 212 | 4.0 | 12.0 | 0.00 | 0.00 | 0.00 | 43 | 1011.0 |
| 20260506192956 | 54 | 194 | 3.0 | 11.0 | 0.00 | 0.00 | 0.00 | 43 | 1011.0 |
| 20260506192457 | 54 | 318 | 4.0 | 9.0 | 0.00 | 0.00 | 0.00 | 43 | 1011.1 |
| 20260506191956 | 55 | 290 | 4.0 | 10.0 | 0.00 | 0.00 | 0.00 | 45 | 1011.0 |
| 20260506191457 | 53 | 252 | 4.0 | 11.0 | 0.00 | 0.00 | 0.00 | 43 | 1010.9 |
| 20260506190956 | 54 | 290 | 4.0 | 11.0 | 0.00 | 0.00 | 0.00 | 45 | 1011.1 |
| 20260506190457 | 54 | 321 | 3.0 | 9.0 | 0.00 | 0.00 | 0.00 | 44 | 1011.1 |
| 20260506185957 | 54 | 305 | 2.0 | 7.0 | 0.00 | 0.00 | 0.00 | 44 | 1011.0 |
| 20260506185457 | 54 | 296 | 3.0 | 13.0 | 0.00 | 0.00 | 0.00 | 42 | 1011.2 |
| 20260506184956 | 54 | 242 | 6.0 | 12.0 | 0.00 | 0.00 | 0.00 | 43 | 1011.1 |
| 20260506184457 | 54 | 276 | 3.0 | 8.0 | 0.00 | 0.00 | 0.00 | 43 | 1011.1 |
| 20260506183956 | 55 | 240 | 3.0 | 9.0 | 0.00 | 0.00 | 0.00 | 42 | 1010.9 |
| 20260506183457 | 57 | 234 | 4.0 | 15.0 | 0.00 | 0.00 | 0.00 | 42 | 1011.1 |
| 20260506182958 | 56 | 214 | 6.0 | 15.0 | 0.00 | 0.00 | 0.00 | 44 | 1011.0 |
| 20260506182457 | 55 | 297 | 4.0 | 12.0 | 0.00 | 0.00 | 0.00 | 44 | 1011.1 |
| 20260506181957 | 53 | 207 | 3.0 | 9.0 | 0.00 | 0.00 | 0.00 | 44 | 1011.0 |
| 20260506181457 | 52 | 276 | 3.0 | 10.0 | 0.00 | 0.00 | 0.00 | 44 | 1011.1 |
| 20260506180956 | 53 | 308 | 4.0 | 10.0 | 0.00 | 0.00 | 0.00 | 43 | 1011.0 |
| 20260506180457 | 53 | 296 | 4.0 | 8.0 | 0.00 | 0.00 | 0.00 | 47 | 1011.1 |
| 20260506175959 | 52 | 301 | 3.0 | 6.0 | 0.00 | 0.00 | 0.00 | 46 | 1011.0 |
| 20260506175458 | 52 | 276 | 2.0 | 9.0 | 0.00 | 0.00 | 0.00 | 48 | 1011.0 |
| 20260506174957 | 52 | 257 | 3.0 | 9.0 | 0.00 | 0.00 | 0.00 | 48 | 1011.0 |
| 20260506174458 | 52 | 310 | 2.0 | 12.0 | 0.00 | 0.00 | 0.00 | 47 | 1011.1 |
| 20260506173958 | 52 | 291 | 4.0 | 9.0 | 0.00 | 0.00 | 0.00 | 46 | 1011.3 |
| 20260506173458 | 52 | 307 | 3.0 | 5.0 | 0.00 | 0.00 | 0.00 | 46 | 1011.3 |
| 20260506172958 | 52 | 294 | 2.0 | 6.0 | 0.00 | 0.00 | 0.00 | 47 | 1011.3 |
| 20260506172458 | 52 | 309 | 3.0 | 8.0 | 0.00 | 0.00 | 0.00 | 48 | 1011.3 |
| 20260506171959 | 52 | 240 | 4.0 | 8.0 | 0.00 | 0.00 | 0.00 | 46 | 1011.4 |
| 20260506171457 | 51 | 232 | 2.0 | 8.0 | 0.00 | 0.00 | 0.00 | 47 | 1011.5 |
| 20260506170958 | 52 | 295 | 3.0 | 6.0 | 0.00 | 0.00 | 0.00 | 46 | 1011.5 |
| 20260506170458 | 52 | 299 | 3.0 | 9.0 | 0.00 | 0.00 | 0.00 | 47 | 1011.5 |
| 20260506165958 | 52 | 297 | 3.0 | 5.0 | 0.00 | 0.00 | 0.00 | 46 | 1011.5 |
| 20260506165457 | 52 | 290 | 2.0 | 6.0 | 0.00 | 0.00 | 0.00 | 47 | 1011.4 |
| 20260506164957 | 52 | 242 | 2.0 | 6.0 | 0.00 | 0.00 | 0.00 | 45 | 1011.4 |
| 20260506145958 | 51 | 297 | 3.0 | 6.0 | 0.00 | 0.00 | 0.00 | 50 | 1011.6 |
| 20260506145457 | 52 | 295 | 1.0 | 4.0 | 0.00 | 0.00 | 0.00 | 48 | 1011.6 |
| 20260506144957 | 51 | 306 | 2.0 | 4.0 | 0.00 | 0.00 | 0.00 | 50 | 1011.5 |
| 20260506144458 | 49 | 134 | 2.0 | 4.0 | 0.00 | 0.00 | 0.00 | 48 | 1011.5 |
| 20260506143958 | 50 | 55 | 2.0 | 5.0 | 0.00 | 0.00 | 0.00 | 53 | 1011.2 |
| 20260506143457 | 49 | 101 | 1.0 | 3.0 | 0.00 | 0.00 | 0.00 | 57 | 1011.3 |
| 20260506135457 | 47 | 105 | 1.0 | 5.0 | 0.00 | 0.00 | 0.00 | 67 | 1011.3 |
| 20260506134957 | 47 | 61 | 2.0 | 5.0 | 0.00 | 0.00 | 0.00 | 66 | 1011.2 |
| 20260506134457 | 46 | 132 | 2.0 | 5.0 | 0.00 | 0.00 | 0.00 | 68 | 1011.1 |
| 20260506133957 | 46 | 68 | 3.0 | 5.0 | 0.00 | 0.00 | 0.00 | 67 | 1011.0 |
| 20260506133458 | 46 | 91 | 1.0 | 4.0 | 0.00 | 0.00 | 0.00 | 69 | 1011.0 |
| 20260506132957 | 45 | 316 | 1.0 | 6.0 | 0.00 | 0.00 | 0.00 | 68 | 1011.1 |
| 20260506132458 | 45 | 338 | 1.0 | 5.0 | 0.00 | 0.00 | 0.00 | 69 | 1011.0 |
| 20260506131957 | 45 | 95 | 2.0 | 5.0 | 0.00 | 0.00 | 0.00 | 69 | 1011.0 |
| 20260506131457 | 44 | 73 | 3.0 | 5.0 | 0.00 | 0.00 | 0.00 | 69 | 1011.1 |
| 20260506130958 | 44 | 45 | 2.0 | 5.0 | 0.00 | 0.00 | 0.00 | 70 | 1011.2 |
| 20260506130457 | 43 | 29 | 1.0 | 5.0 | 0.00 | 0.00 | 0.00 | 70 | 1011.3 |
| 20260506125957 | 43 | 77 | 2.0 | 5.0 | 0.00 | 0.00 | 0.00 | 71 | 1011.3 |
| 20260506125457 | 43 | 76 | 2.0 | 5.0 | 0.00 | 0.00 | 0.00 | 71 | 1011.2 |
| 20260506121956 | 38 | 83 | 2.0 | 4.0 | 0.00 | 0.00 | 0.00 | 80 | 1010.9 |
| 20260506121456 | 37 | 351 | 0.0 | 4.0 | 0.00 | 0.00 | 0.00 | 81 | 1010.8 |
| 20260506120957 | 37 | 49 | 1.0 | 5.0 | 0.00 | 0.00 | 0.00 | 81 | 1010.7 |
| 20260506120456 | 36 | 73 | 1.0 | 5.0 | 0.00 | 0.00 | 0.00 | 82 | 1010.6 |
| 20260506115957 | 36 | 67 | 2.0 | 4.0 | 0.00 | 0.00 | 0.00 | 82 | 1010.6 |
| 20260506115457 | 35 | 15 | 1.0 | 3.0 | 0.00 | 0.00 | 0.00 | 82 | 1010.4 |
| 20260506114957 | 35 | 41 | 0.0 | 2.0 | 0.00 | 0.00 | 0.00 | 81 | 1010.3 |
| 20260506114457 | 35 | 309 | 0.0 | 2.0 | 0.00 | 0.00 | 0.00 | 81 | 1010.2 |
| 20260506113957 | 35 | 309 | 0.0 | 2.0 | 0.00 | 0.00 | 0.00 | 81 | 1010.1 |
| 20260506113457 | 34 | 309 | 0.0 | 2.0 | 0.00 | 0.00 | 0.00 | 81 | 1009.9 |
| 20260506112959 | 34 | 313 | 0.0 | 1.0 | 0.00 | 0.00 | 0.00 | 80 | 1009.8 |
| 20260506112457 | 34 | 311 | 0.0 | 1.0 | 0.00 | 0.00 | 0.00 | 80 | 1009.9 |
| 20260506111956 | 34 | 316 | 0.0 | 1.0 | 0.00 | 0.00 | 0.00 | 79 | 1009.8 |
| 20260506111456 | 34 | 305 | 0.0 | 0.0 | 0.00 | 0.00 | 0.00 | 79 | 1009.6 |
| 20260506110956 | 34 | 305 | 0.0 | 2.0 | 0.00 | 0.00 | 0.00 | 79 | 1009.6 |
| 20260506110457 | 34 | 305 | 0.0 | 2.0 | 0.00 | 0.00 | 0.00 | 78 | 1009.6 |
| 20260506105957 | 34 | 291 | 0.0 | 1.0 | 0.00 | 0.00 | 0.00 | 78 | 1009.7 |
| 20260506105457 | 35 | 291 | 0.0 | 1.0 | 0.00 | 0.00 | 0.00 | 78 | 1009.8 |
| 20260506104956 | 35 | 291 | 0.0 | 2.0 | 0.00 | 0.00 | 0.00 | 78 | 1009.7 |
| 20260506104456 | 35 | 291 | 0.0 | 2.0 | 0.00 | 0.00 | 0.00 | 78 | 1009.7 |